"read_dt","SO2 (ppb)","flags","PMT voltage (V)","lamp voltage (V)","lamp intensity (Hz)","internal temp (C)","react chamber temp (C)","sample flow (l/min)","pres (mmHg)","SO2 bkg (ppb)","SO2 coefficient"
2014-06-18 00:00:00,1848E-3,5C000000,-0724,0839,12103,023.3,045.4,0.494,744.9,01.17,0.508
2014-06-18 00:01:00,1823E-3,5C000000,-0724,0839,11975,023.3,045.4,0.494,744.9,01.17,0.508
2014-06-18 00:02:00,1819E-3,5C000000,-0724,0839,11993,023.3,045.4,0.494,744.9,01.17,0.508
2014-06-18 00:03:00,1825E-3,5C000000,-0724,0839,12132,023.3,045.4,0.495,744.9,01.17,0.508
2014-06-18 00:04:00,1743E-3,5C000000,-0724,0838,12151,023.3,045.4,0.495,744.8,01.17,0.508
2014-06-18 00:05:00,1764E-3,5C000000,-0724,0839,12297,023.3,045.4,0.494,744.8,01.17,0.508
2014-06-18 00:06:00,1916E-3,5C000000,-0724,0839,12120,023.3,045.4,0.494,744.9,01.17,0.508
2014-06-18 00:07:00,1848E-3,5C000000,-0724,0838,11828,023.3,045.4,0.494,744.8,01.17,0.508
2014-06-18 00:08:00,1813E-3,5C000000,-0724,0838,11925,023.3,045.4,0.495,744.8,01.17,0.508
2014-06-18 00:09:00,1878E-3,5C000000,-0724,0838,12144,023.3,045.4,0.495,744.8,01.17,0.508
2014-06-18 00:10:00,1806E-3,5C000000,-0724,0838,12159,023.3,045.4,0.495,744.7,01.17,0.508
2014-06-18 00:11:00,1845E-3,5C000000,-0724,0838,12092,023.3,045.4,0.495,744.8,01.17,0.508
2014-06-18 00:12:00,1835E-3,5C000000,-0724,0840,12208,023.3,045.4,0.494,744.8,01.17,0.508
2014-06-18 00:13:00,1851E-3,5C000000,-0724,0839,12056,023.3,045.4,0.494,744.8,01.17,0.508
2014-06-18 00:14:00,1734E-3,5C000000,-0724,0839,11890,023.3,045.4,0.494,744.8,01.17,0.508
2014-06-18 00:15:00,1748E-3,5C000000,-0724,0839,12144,023.3,045.4,0.494,744.9,01.17,0.508
2014-06-18 00:16:00,1774E-3,5C000000,-0724,0839,11943,023.3,045.4,0.495,745.0,01.17,0.508
2014-06-18 00:17:00,1823E-3,5C000000,-0724,0838,11932,023.3,045.3,0.495,745.0,01.17,0.508
2014-06-18 00:18:00,1787E-3,5C000000,-0724,0840,12171,023.3,045.4,0.495,745.0,01.17,0.508
2014-06-18 00:19:00,1877E-3,5C000000,-0724,0839,12097,023.3,045.4,0.494,745.0,01.17,0.508
2014-06-18 00:20:00,1876E-3,5C000000,-0724,0839,12077,023.3,045.4,0.494,745.0,01.17,0.508
2014-06-18 00:21:00,1723E-3,5C000000,-0724,0839,12199,023.3,045.3,0.494,745.0,01.17,0.508
2014-06-18 00:22:00,1779E-3,5C000000,-0724,0840,12038,023.3,045.4,0.495,745.0,01.17,0.508
2014-06-18 00:23:00,1827E-3,5C000000,-0724,0839,12127,023.3,045.4,0.495,744.9,01.17,0.508
2014-06-18 00:24:00,1830E-3,5C000000,-0724,0839,11944,023.3,045.4,0.494,745.0,01.17,0.508
2014-06-18 00:25:00,1859E-3,5C000000,-0724,0839,12083,023.3,045.4,0.494,745.0,01.17,0.508
2014-06-18 00:26:00,1842E-3,5C000000,-0724,0839,12011,023.3,045.4,0.495,744.9,01.17,0.508
2014-06-18 00:27:00,1803E-3,5C000000,-0724,0838,12039,023.3,045.4,0.495,744.9,01.17,0.508
2014-06-18 00:28:00,1650E-3,5C000000,-0724,0839,12117,023.3,045.4,0.494,745.0,01.17,0.508
2014-06-18 00:29:00,1795E-3,5C000000,-0724,0838,12020,023.3,045.4,0.495,745.0,01.17,0.508
2014-06-18 00:30:00,1706E-3,5C000000,-0724,0839,11853,023.3,045.4,0.495,745.1,01.17,0.508
2014-06-18 00:31:00,1832E-3,5C000000,-0724,0839,12125,023.3,045.4,0.494,745.1,01.17,0.508
2014-06-18 00:32:00,1936E-3,5C000000,-0724,0838,12036,023.3,045.4,0.494,745.1,01.17,0.508
2014-06-18 00:33:00,1837E-3,5C000000,-0724,0838,11990,023.3,045.4,0.495,745.1,01.17,0.508
2014-06-18 00:34:00,1746E-3,5C000000,-0724,0839,12068,023.3,045.4,0.495,745.1,01.17,0.508
2014-06-18 00:35:00,1846E-3,5C000000,-0724,0839,12191,023.3,045.4,0.494,745.0,01.17,0.508
2014-06-18 00:36:00,1763E-3,5C000000,-0724,0839,12120,023.3,045.4,0.494,745.0,01.17,0.508
2014-06-18 00:37:00,1825E-3,5C000000,-0724,0839,12187,023.3,045.4,0.495,745.0,01.17,0.508
2014-06-18 00:38:00,1854E-3,5C000000,-0724,0839,11954,023.3,045.4,0.495,745.0,01.17,0.508
2014-06-18 00:39:00,1790E-3,5C000000,-0724,0839,12003,023.3,045.4,0.494,745.0,01.17,0.508
2014-06-18 00:40:00,1827E-3,5C000000,-0724,0840,12170,023.3,045.4,0.494,745.1,01.17,0.508
2014-06-18 00:41:00,2018E-3,5C000000,-0724,0839,12165,023.3,045.4,0.495,745.1,01.17,0.508
2014-06-18 00:42:00,1733E-3,5C000000,-0724,0839,12287,023.3,045.4,0.495,745.1,01.17,0.508
2014-06-18 00:43:00,1822E-3,5C000000,-0724,0840,12289,023.3,045.4,0.495,745.0,01.17,0.508
2014-06-18 00:44:00,1790E-3,5C000000,-0724,0839,12059,023.3,045.4,0.494,744.9,01.17,0.508
2014-06-18 00:45:00,1878E-3,5C000000,-0724,0838,11964,023.3,045.4,0.494,744.9,01.17,0.508
2014-06-18 00:46:00,1744E-3,5C000000,-0724,0840,12277,023.3,045.4,0.495,744.9,01.17,0.508
2014-06-18 00:47:00,1874E-3,5C000000,-0724,0838,11998,023.3,045.4,0.495,744.9,01.17,0.508
2014-06-18 00:48:00,1839E-3,5C000000,-0724,0839,12126,023.3,045.4,0.495,744.9,01.17,0.508
2014-06-18 00:49:00,1849E-3,5C000000,-0724,0839,12189,023.3,045.4,0.495,744.9,01.17,0.508
2014-06-18 00:50:00,1781E-3,5C000000,-0724,0839,12172,023.3,045.4,0.494,744.8,01.17,0.508
2014-06-18 00:51:00,1875E-3,5C000000,-0724,0840,12193,023.3,045.4,0.494,744.9,01.17,0.508
2014-06-18 00:52:00,1764E-3,5C000000,-0724,0839,11928,023.3,045.4,0.494,744.9,01.17,0.508
2014-06-18 00:53:00,1641E-3,5C000000,-0724,0839,12110,023.3,045.4,0.494,745.0,01.17,0.508
2014-06-18 00:54:00,1872E-3,5C000000,-0724,0839,11930,023.2,045.4,0.494,745.1,01.17,0.508
2014-06-18 00:55:00,1603E-3,5C000000,-0724,0839,12125,023.2,045.4,0.494,745.1,01.17,0.508
2014-06-18 00:56:00,1840E-3,5C000000,-0724,0839,12045,023.2,045.4,0.495,745.1,01.17,0.508
2014-06-18 00:57:00,1782E-3,5C000000,-0724,0840,12015,023.2,045.4,0.494,745.0,01.17,0.508
2014-06-18 00:58:00,1864E-3,5C000000,-0724,0839,11765,023.2,045.4,0.494,745.0,01.17,0.508
2014-06-18 00:59:00,1861E-3,5C000000,-0724,0840,11937,023.2,045.4,0.494,745.0,01.17,0.508
2014-06-18 01:00:00,1713E-3,5C000000,-0724,0840,12154,023.2,045.4,0.494,744.9,01.17,0.508
2014-06-18 01:01:00,1700E-3,5C000000,-0724,0839,12192,023.1,045.4,0.495,744.9,01.17,0.508
2014-06-18 01:02:00,1744E-3,5C000000,-0724,0838,11985,023.1,045.4,0.494,745.0,01.17,0.508
2014-06-18 01:03:00,1984E-3,5C000000,-0724,0839,12088,023.1,045.4,0.494,745.0,01.17,0.508
2014-06-18 01:04:00,1793E-3,5C000000,-0724,0840,12124,023.1,045.4,0.495,745.0,01.17,0.508
2014-06-18 01:05:00,1945E-3,5C000000,-0724,0840,12014,023.1,045.4,0.494,745.0,01.17,0.508
2014-06-18 01:06:00,1836E-3,5C000000,-0724,0838,12095,023.1,045.3,0.494,744.9,01.17,0.508
2014-06-18 01:07:00,1821E-3,5C000000,-0724,0839,12223,023.2,045.4,0.495,744.9,01.17,0.508
2014-06-18 01:08:00,1866E-3,5C000000,-0724,0839,12191,023.1,045.4,0.494,744.8,01.17,0.508
2014-06-18 01:09:00,1808E-3,5C000000,-0724,0840,11899,023.1,045.4,0.494,744.8,01.17,0.508
2014-06-18 01:10:00,1878E-3,5C000000,-0724,0839,12075,023.1,045.4,0.495,744.8,01.17,0.508
2014-06-18 01:11:00,1779E-3,5C000000,-0724,0838,12271,023.1,045.4,0.494,744.8,01.17,0.508
2014-06-18 01:12:00,1694E-3,5C000000,-0724,0838,12273,023.1,045.4,0.494,744.9,01.17,0.508
2014-06-18 01:13:00,1811E-3,5C000000,-0724,0839,12156,023.1,045.4,0.495,744.9,01.17,0.508
2014-06-18 01:14:00,1800E-3,5C000000,-0724,0840,12080,023.2,045.4,0.494,744.9,01.17,0.508
2014-06-18 01:15:00,1846E-3,5C000000,-0724,0840,12065,023.2,045.4,0.494,744.9,01.17,0.508
2014-06-18 01:16:00,1809E-3,5C000000,-0724,0838,12047,023.2,045.4,0.495,744.8,01.17,0.508
2014-06-18 01:17:00,1698E-3,5C000000,-0724,0839,12096,023.2,045.4,0.494,744.8,01.17,0.508
2014-06-18 01:18:00,1688E-3,5C000000,-0724,0840,11966,023.2,045.4,0.494,744.7,01.17,0.508
2014-06-18 01:19:00,1736E-3,5C000000,-0724,0839,11919,023.2,045.4,0.495,744.8,01.17,0.508
2014-06-18 01:20:00,1845E-3,5C000000,-0724,0840,12103,023.2,045.4,0.495,744.8,01.17,0.508
2014-06-18 01:21:00,1845E-3,5C000000,-0724,0839,11944,023.2,045.4,0.494,744.9,01.17,0.508
2014-06-18 01:22:00,1900E-3,5C000000,-0724,0839,12126,023.2,045.4,0.495,744.9,01.17,0.508
2014-06-18 01:23:00,1862E-3,5C000000,-0724,0839,12160,023.2,045.4,0.494,745.0,01.17,0.508
2014-06-18 01:24:00,1929E-3,5C000000,-0724,0838,12159,023.2,045.4,0.494,745.0,01.17,0.508
2014-06-18 01:25:00,1888E-3,5C000000,-0724,0839,12290,023.1,045.4,0.495,745.0,01.17,0.508
2014-06-18 01:26:00,1801E-3,5C000000,-0724,0839,12150,023.1,045.4,0.494,745.0,01.17,0.508
2014-06-18 01:27:00,1925E-3,5C000000,-0724,0838,12036,023.2,045.4,0.495,745.0,01.17,0.508
2014-06-18 01:28:00,1701E-3,5C000000,-0724,0839,12120,023.2,045.4,0.494,745.0,01.17,0.508
2014-06-18 01:29:00,1770E-3,5C000000,-0724,0840,12068,023.2,045.4,0.495,745.0,01.17,0.508
2014-06-18 01:30:00,1862E-3,5C000000,-0724,0839,12058,023.2,045.4,0.495,745.0,01.17,0.508
2014-06-18 01:31:00,1860E-3,5C000000,-0724,0839,12211,023.2,045.4,0.494,745.0,01.17,0.508
2014-06-18 01:32:00,1797E-3,5C000000,-0724,0838,12128,023.2,045.4,0.495,745.0,01.17,0.508
2014-06-18 01:33:00,1724E-3,5C000000,-0724,0840,12206,023.2,045.4,0.495,744.9,01.17,0.508
2014-06-18 01:34:00,1813E-3,5C000000,-0724,0840,12174,023.2,045.4,0.494,745.0,01.17,0.508
2014-06-18 01:35:00,1985E-3,5C000000,-0724,0839,12192,023.2,045.4,0.495,745.0,01.17,0.508
2014-06-18 01:36:00,1778E-3,5C000000,-0724,0840,12148,023.2,045.4,0.495,745.0,01.17,0.508
2014-06-18 01:37:00,1865E-3,5C000000,-0724,0840,12164,023.2,045.4,0.495,745.0,01.17,0.508
2014-06-18 01:38:00,1733E-3,5C000000,-0724,0839,12271,023.2,045.4,0.494,745.0,01.17,0.508
2014-06-18 01:39:00,1750E-3,5C000000,-0724,0838,11837,023.2,045.4,0.494,744.9,01.17,0.508
2014-06-18 01:40:00,1715E-3,5C000000,-0724,0839,12189,023.2,045.4,0.495,744.9,01.17,0.508
2014-06-18 01:41:00,1789E-3,5C000000,-0724,0839,12187,023.3,045.4,0.494,744.9,01.17,0.508
2014-06-18 01:42:00,1816E-3,5C000000,-0724,0839,12181,023.2,045.4,0.494,745.0,01.17,0.508
2014-06-18 01:43:00,1739E-3,5C000000,-0724,0839,12159,023.2,045.4,0.495,745.0,01.17,0.508
2014-06-18 01:44:00,1757E-3,5C000000,-0724,0839,12163,023.3,045.4,0.495,745.0,01.17,0.508
2014-06-18 01:45:00,1803E-3,5C000000,-0724,0839,12029,023.3,045.4,0.494,745.0,01.17,0.508
2014-06-18 01:46:00,1748E-3,5C000000,-0724,0839,12257,023.2,045.4,0.495,745.0,01.17,0.508
2014-06-18 01:47:00,1784E-3,5C000000,-0724,0839,12161,023.3,045.4,0.495,745.0,01.17,0.508
2014-06-18 01:48:00,1752E-3,5C000000,-0724,0840,12264,023.3,045.4,0.495,745.0,01.17,0.508
2014-06-18 01:49:00,1829E-3,5C000000,-0724,0841,11932,023.3,045.4,0.495,745.0,01.17,0.508
2014-06-18 01:50:00,1676E-3,5C000000,-0724,0839,12245,023.3,045.4,0.496,745.0,01.17,0.508
2014-06-18 01:51:00,1853E-3,5C000000,-0724,0839,12298,023.4,045.4,0.495,745.0,01.17,0.508
2014-06-18 01:52:00,1786E-3,5C000000,-0724,0840,11997,023.4,045.4,0.496,745.0,01.17,0.508
2014-06-18 01:53:00,1845E-3,5C000000,-0724,0839,12084,023.3,045.4,0.496,745.0,01.17,0.508
2014-06-18 01:54:00,1907E-3,5C000000,-0724,0839,12178,023.4,045.4,0.496,744.9,01.17,0.508
2014-06-18 01:55:00,1843E-3,5C000000,-0724,0839,12085,023.4,045.4,0.495,745.0,01.17,0.508
2014-06-18 01:56:00,1747E-3,5C000000,-0724,0840,12048,023.4,045.4,0.495,744.9,01.17,0.508
2014-06-18 01:57:00,1839E-3,5C000000,-0724,0840,12128,023.4,045.4,0.496,744.9,01.17,0.508
2014-06-18 01:58:00,1851E-3,5C000000,-0724,0838,12171,023.4,045.4,0.496,744.8,01.17,0.508
2014-06-18 01:59:00,1665E-3,5C000000,-0724,0839,12151,023.4,045.4,0.496,744.8,01.17,0.508
2014-06-18 02:00:00,1711E-3,5C000000,-0724,0840,12165,023.4,045.4,0.496,744.7,01.17,0.508
2014-06-18 02:01:00,1825E-3,5C000000,-0724,0839,12069,023.4,045.4,0.496,744.7,01.17,0.508
2014-06-18 02:02:00,1818E-3,5C000000,-0724,0839,12072,023.4,045.4,0.496,744.7,01.17,0.508
2014-06-18 02:03:00,1656E-3,5C000000,-0724,0839,12023,023.4,045.4,0.496,744.7,01.17,0.508
2014-06-18 02:04:00,1804E-3,5C000000,-0724,0839,12276,023.4,045.4,0.496,744.7,01.17,0.508
2014-06-18 02:05:00,1857E-3,5C000000,-0724,0838,11973,023.4,045.4,0.496,744.7,01.17,0.508
2014-06-18 02:06:00,1772E-3,5C000000,-0724,0838,12140,023.4,045.4,0.496,744.7,01.17,0.508
2014-06-18 02:07:00,1804E-3,5C000000,-0724,0839,12085,023.4,045.4,0.496,744.7,01.17,0.508
2014-06-18 02:08:00,1908E-3,5C000000,-0724,0839,12222,023.4,045.4,0.496,744.7,01.17,0.508
2014-06-18 02:09:00,1791E-3,5C000000,-0724,0840,12087,023.4,045.4,0.496,744.7,01.17,0.508
2014-06-18 02:10:00,1767E-3,5C000000,-0724,0840,11869,023.4,045.4,0.496,744.7,01.17,0.508
2014-06-18 02:11:00,1705E-3,5C000000,-0724,0839,12040,023.4,045.4,0.496,744.7,01.17,0.508
2014-06-18 02:12:00,1769E-3,5C000000,-0724,0839,12080,023.4,045.4,0.496,744.7,01.17,0.508
2014-06-18 02:13:00,1916E-3,5C000000,-0724,0841,12157,023.4,045.4,0.496,744.7,01.17,0.508
2014-06-18 02:14:00,1755E-3,5C000000,-0724,0839,11965,023.4,045.4,0.496,744.7,01.17,0.508
2014-06-18 02:15:00,1869E-3,5C000000,-0724,0839,12288,023.4,045.4,0.496,744.6,01.17,0.508
2014-06-18 02:16:00,1699E-3,5C000000,-0724,0839,12000,023.4,045.4,0.496,744.6,01.17,0.508
2014-06-18 02:17:00,1876E-3,5C000000,-0724,0839,11994,023.4,045.4,0.496,744.5,01.17,0.508
2014-06-18 02:18:00,1871E-3,5C000000,-0724,0838,12060,023.4,045.4,0.496,744.5,01.17,0.508
2014-06-18 02:19:00,1806E-3,5C000000,-0724,0839,11988,023.4,045.4,0.496,744.6,01.17,0.508
2014-06-18 02:20:00,1794E-3,5C000000,-0724,0840,12334,023.4,045.4,0.495,744.5,01.17,0.508
2014-06-18 02:21:00,1764E-3,5C000000,-0724,0839,11967,023.4,045.4,0.496,744.5,01.17,0.508
2014-06-18 02:22:00,1747E-3,5C000000,-0724,0840,12153,023.4,045.4,0.496,744.5,01.17,0.508
2014-06-18 02:23:00,1848E-3,5C000000,-0724,0839,12274,023.4,045.4,0.495,744.5,01.17,0.508
2014-06-18 02:24:00,1841E-3,5C000000,-0724,0839,12151,023.4,045.4,0.496,744.4,01.18,0.508
2014-06-18 02:25:00,1615E-3,5C000000,-0724,0839,12244,023.4,045.4,0.496,744.5,01.17,0.508
2014-06-18 02:26:00,1764E-3,5C000000,-0724,0839,12297,023.4,045.4,0.496,744.5,01.17,0.508
2014-06-18 02:27:00,1744E-3,5C000000,-0724,0839,12175,023.4,045.4,0.496,744.6,01.17,0.508
2014-06-18 02:28:00,1693E-3,5C000000,-0724,0841,12259,023.4,045.4,0.496,744.6,01.17,0.508
2014-06-18 02:29:00,1819E-3,5C000000,-0724,0839,12130,023.4,045.4,0.496,744.6,01.17,0.508
2014-06-18 02:30:00,1838E-3,5C000000,-0724,0839,11976,023.4,045.4,0.495,744.5,01.17,0.508
2014-06-18 02:31:00,1674E-3,5C000000,-0724,0839,12140,023.4,045.4,0.496,744.5,01.17,0.508
2014-06-18 02:32:00,1788E-3,5C000000,-0724,0838,12174,023.4,045.4,0.495,744.4,01.18,0.508
2014-06-18 02:33:00,1700E-3,5C000000,-0724,0839,12199,023.4,045.4,0.496,744.4,01.18,0.508
2014-06-18 02:34:00,1841E-3,5C000000,-0724,0839,12227,023.4,045.4,0.496,744.4,01.18,0.508
2014-06-18 02:35:00,1839E-3,5C000000,-0724,0839,12155,023.5,045.4,0.495,744.5,01.17,0.508
2014-06-18 02:36:00,1816E-3,5C000000,-0724,0840,12200,023.5,045.4,0.496,744.4,01.18,0.508
2014-06-18 02:37:00,1853E-3,5C000000,-0724,0839,12127,023.5,045.4,0.496,744.4,01.18,0.508
2014-06-18 02:38:00,1885E-3,5C000000,-0724,0839,12122,023.5,045.4,0.496,744.4,01.18,0.508
2014-06-18 02:39:00,1737E-3,5C000000,-0724,0840,12140,023.5,045.4,0.496,744.4,01.18,0.508
2014-06-18 02:40:00,1894E-3,5C000000,-0724,0839,12154,023.5,045.4,0.495,744.4,01.18,0.508
2014-06-18 02:41:00,1989E-3,5C000000,-0724,0839,12167,023.5,045.4,0.496,744.4,01.18,0.508
2014-06-18 02:42:00,1850E-3,5C000000,-0724,0839,12015,023.5,045.4,0.495,744.4,01.18,0.508
2014-06-18 02:43:00,1746E-3,5C000000,-0724,0841,12196,023.5,045.4,0.496,744.4,01.18,0.508
2014-06-18 02:44:00,1811E-3,5C000000,-0724,0840,12097,023.5,045.4,0.495,744.4,01.18,0.508
2014-06-18 02:45:00,1937E-3,5C000000,-0724,0839,12142,023.5,045.4,0.496,744.3,01.18,0.508
2014-06-18 02:46:00,1735E-3,5C000000,-0724,0839,12255,023.6,045.4,0.496,744.4,01.18,0.508
2014-06-18 02:47:00,1805E-3,5C000000,-0724,0839,11937,023.6,045.4,0.495,744.4,01.18,0.508
2014-06-18 02:48:00,1810E-3,5C000000,-0724,0840,12185,023.5,045.4,0.496,744.3,01.18,0.508
2014-06-18 02:49:00,1844E-3,5C000000,-0724,0839,12190,023.5,045.4,0.496,744.4,01.18,0.508
2014-06-18 02:50:00,1926E-3,5C000000,-0724,0839,12125,023.5,045.4,0.495,744.3,01.18,0.508
2014-06-18 02:51:00,1868E-3,5C000000,-0724,0839,12134,023.5,045.4,0.496,744.3,01.18,0.508
2014-06-18 02:52:00,1873E-3,5C000000,-0724,0839,12099,023.5,045.4,0.495,744.3,01.18,0.508
2014-06-18 02:53:00,1730E-3,5C000000,-0724,0840,12109,023.6,045.4,0.496,744.3,01.18,0.508
2014-06-18 02:54:00,1777E-3,5C000000,-0724,0840,12166,023.5,045.3,0.495,744.3,01.18,0.508
2014-06-18 02:55:00,1836E-3,5C000000,-0724,0840,12292,023.6,045.4,0.496,744.3,01.18,0.508
2014-06-18 02:56:00,1750E-3,5C000000,-0724,0839,12126,023.6,045.4,0.496,744.3,01.18,0.508
2014-06-18 02:57:00,1716E-3,5C000000,-0724,0840,12062,023.6,045.4,0.495,744.2,01.18,0.508
2014-06-18 02:58:00,1836E-3,5C000000,-0724,0838,11791,023.6,045.4,0.496,744.2,01.18,0.508
2014-06-18 02:59:00,1835E-3,5C000000,-0724,0839,12113,023.6,045.4,0.495,744.2,01.18,0.508
2014-06-18 03:00:00,1740E-3,5C000000,-0724,0839,11998,023.6,045.4,0.495,744.2,01.18,0.508
2014-06-18 03:01:00,1929E-3,5C000000,-0724,0839,12194,023.5,045.4,0.496,744.2,01.18,0.508
2014-06-18 03:02:00,1844E-3,5C000000,-0724,0839,12172,023.5,045.4,0.495,744.2,01.18,0.508
2014-06-18 03:03:00,1771E-3,5C000000,-0724,0840,12215,023.5,045.4,0.496,744.2,01.18,0.508
2014-06-18 03:04:00,1864E-3,5C000000,-0724,0839,12211,023.5,045.4,0.496,744.2,01.18,0.508
2014-06-18 03:05:00,1831E-3,5C000000,-0724,0840,12316,023.5,045.4,0.495,744.2,01.18,0.508
2014-06-18 03:06:00,1844E-3,5C000000,-0724,0839,12227,023.5,045.4,0.496,744.2,01.18,0.508
2014-06-18 03:07:00,1797E-3,5C000000,-0724,0839,12216,023.5,045.4,0.495,744.2,01.18,0.508
2014-06-18 03:08:00,1840E-3,5C000000,-0724,0839,11907,023.5,045.4,0.496,744.2,01.18,0.508
2014-06-18 03:09:00,1888E-3,5C000000,-0724,0839,12127,023.5,045.4,0.495,744.2,01.18,0.508
2014-06-18 03:10:00,1734E-3,5C000000,-0724,0838,12113,023.5,045.4,0.496,744.2,01.18,0.508
2014-06-18 03:11:00,1755E-3,5C000000,-0724,0839,12133,023.5,045.4,0.495,744.2,01.18,0.508
2014-06-18 03:12:00,1733E-3,5C000000,-0724,0841,12194,023.5,045.4,0.496,744.2,01.18,0.508
2014-06-18 03:13:00,1847E-3,5C000000,-0724,0840,12088,023.5,045.4,0.495,744.2,01.18,0.508
2014-06-18 03:14:00,1823E-3,5C000000,-0724,0840,12187,023.5,045.4,0.496,744.2,01.18,0.508
2014-06-18 03:15:00,1803E-3,5C000000,-0724,0840,12128,023.5,045.3,0.495,744.2,01.18,0.508
2014-06-18 03:16:00,1904E-3,5C000000,-0724,0839,12268,023.5,045.4,0.496,744.2,01.18,0.508
2014-06-18 03:17:00,1805E-3,5C000000,-0724,0839,12066,023.5,045.4,0.495,744.2,01.18,0.508
2014-06-18 03:18:00,1699E-3,5C000000,-0724,0839,12059,023.5,045.4,0.496,744.2,01.18,0.508
2014-06-18 03:19:00,1866E-3,5C000000,-0724,0839,12114,023.5,045.4,0.495,744.2,01.18,0.508
2014-06-18 03:20:00,1795E-3,5C000000,-0724,0840,12049,023.5,045.4,0.496,744.2,01.18,0.508
2014-06-18 03:21:00,1908E-3,5C000000,-0724,0840,12262,023.5,045.4,0.495,744.1,01.18,0.508
2014-06-18 03:22:00,1810E-3,5C000000,-0724,0838,11956,023.5,045.4,0.496,744.1,01.18,0.508
2014-06-18 03:23:00,1829E-3,5C000000,-0724,0839,12096,023.5,045.4,0.496,744.1,01.18,0.508
2014-06-18 03:24:00,1753E-3,5C000000,-0724,0839,12114,023.5,045.4,0.496,744.1,01.18,0.508
2014-06-18 03:25:00,1816E-3,5C000000,-0724,0840,12011,023.5,045.4,0.496,744.1,01.18,0.508
2014-06-18 03:26:00,1939E-3,5C000000,-0724,0838,12067,023.5,045.3,0.495,744.1,01.18,0.508
2014-06-18 03:27:00,1809E-3,5C000000,-0724,0839,12145,023.5,045.4,0.496,744.2,01.18,0.508
2014-06-18 03:28:00,1859E-3,5C000000,-0724,0839,12125,023.5,045.4,0.496,744.1,01.18,0.508
2014-06-18 03:29:00,1748E-3,5C000000,-0724,0840,12064,023.5,045.4,0.496,744.1,01.18,0.508
2014-06-18 03:30:00,1915E-3,5C000000,-0724,0839,12055,023.5,045.4,0.496,744.1,01.18,0.508
2014-06-18 03:31:00,1852E-3,5C000000,-0724,0840,12065,023.5,045.4,0.495,744.2,01.18,0.508
2014-06-18 03:32:00,1859E-3,5C000000,-0724,0840,12004,023.5,045.4,0.496,744.2,01.18,0.508
2014-06-18 03:33:00,1815E-3,5C000000,-0724,0839,11827,023.5,045.4,0.495,744.2,01.18,0.508
2014-06-18 03:34:00,1827E-3,5C000000,-0724,0839,12134,023.5,045.4,0.496,744.2,01.18,0.508
2014-06-18 03:35:00,1669E-3,5C000000,-0724,0840,12125,023.5,045.4,0.495,744.2,01.18,0.508
2014-06-18 03:36:00,1727E-3,5C000000,-0724,0839,12193,023.5,045.4,0.496,744.2,01.18,0.508
2014-06-18 03:37:00,1793E-3,5C000000,-0724,0838,12174,023.5,045.4,0.495,744.2,01.18,0.508
2014-06-18 03:38:00,1825E-3,5C000000,-0724,0840,12202,023.5,045.4,0.496,744.1,01.18,0.508
2014-06-18 03:39:00,1816E-3,5C000000,-0724,0840,12225,023.5,045.4,0.495,744.1,01.18,0.508
2014-06-18 03:40:00,1863E-3,5C000000,-0724,0840,12339,023.5,045.4,0.496,744.1,01.18,0.508
2014-06-18 03:41:00,1899E-3,5C000000,-0724,0840,12152,023.5,045.4,0.496,744.1,01.18,0.508
2014-06-18 03:42:00,1833E-3,5C000000,-0724,0838,11940,023.4,045.4,0.496,744.1,01.18,0.508
2014-06-18 03:43:00,1769E-3,5C000000,-0724,0840,12066,023.5,045.4,0.496,744.2,01.18,0.508
2014-06-18 03:44:00,1652E-3,5C000000,-0724,0840,12164,023.4,045.4,0.496,744.2,01.18,0.508
2014-06-18 03:45:00,1830E-3,5C000000,-0724,0838,12246,023.4,045.4,0.496,744.2,01.18,0.508
2014-06-18 03:46:00,1844E-3,5C000000,-0724,0838,12185,023.4,045.4,0.496,744.2,01.18,0.508
2014-06-18 03:47:00,1816E-3,5C000000,-0724,0839,12065,023.4,045.4,0.496,744.2,01.18,0.508
2014-06-18 03:48:00,1865E-3,5C000000,-0724,0838,12021,023.4,045.4,0.496,744.1,01.18,0.508
2014-06-18 03:49:00,1809E-3,5C000000,-0724,0840,12022,023.4,045.4,0.496,744.1,01.18,0.508
2014-06-18 03:50:00,1764E-3,5C000000,-0724,0839,12129,023.4,045.4,0.496,744.1,01.18,0.508
2014-06-18 03:51:00,1889E-3,5C000000,-0724,0838,12179,023.4,045.4,0.496,744.2,01.18,0.508
2014-06-18 03:52:00,1917E-3,5C000000,-0724,0839,12008,023.4,045.4,0.496,744.1,01.18,0.508
2014-06-18 03:53:00,1746E-3,5C000000,-0724,0840,12054,023.4,045.4,0.496,744.1,01.18,0.508
2014-06-18 03:54:00,1932E-3,5C000000,-0724,0839,12035,023.4,045.4,0.496,744.1,01.18,0.508
2014-06-18 03:55:00,1808E-3,5C000000,-0724,0839,12205,023.4,045.4,0.496,744.0,01.18,0.508
2014-06-18 03:56:00,1828E-3,5C000000,-0724,0839,12152,023.4,045.4,0.496,744.0,01.18,0.508
2014-06-18 03:57:00,1794E-3,5C000000,-0724,0838,11962,023.4,045.4,0.496,744.0,01.18,0.508
2014-06-18 03:58:00,1787E-3,5C000000,-0724,0840,12021,023.4,045.4,0.496,743.9,01.18,0.508
2014-06-18 03:59:00,1699E-3,5C000000,-0724,0838,11915,023.4,045.4,0.496,743.9,01.18,0.508
2014-06-18 04:00:00,1756E-3,5C000000,-0724,0839,12188,023.4,045.4,0.496,743.9,01.18,0.508
2014-06-18 04:01:00,1800E-3,5C000000,-0724,0839,12205,023.4,045.4,0.495,743.9,01.18,0.508
2014-06-18 04:02:00,1821E-3,5C000000,-0724,0839,12165,023.3,045.4,0.496,743.9,01.18,0.508
2014-06-18 04:03:00,1809E-3,5C000000,-0724,0839,12031,023.3,045.4,0.495,743.9,01.18,0.508
2014-06-18 04:04:00,1928E-3,5C000000,-0724,0839,12004,023.3,045.3,0.496,743.8,01.18,0.508
2014-06-18 04:05:00,1759E-3,5C000000,-0724,0840,12223,023.3,045.4,0.495,743.8,01.18,0.508
2014-06-18 04:06:00,1873E-3,5C000000,-0724,0839,12160,023.3,045.4,0.496,743.8,01.18,0.508
2014-06-18 04:07:00,1823E-3,5C000000,-0724,0838,12019,023.3,045.4,0.496,743.7,01.18,0.508
2014-06-18 04:08:00,1652E-3,5C000000,-0724,0839,12130,023.3,045.3,0.496,743.8,01.18,0.508
2014-06-18 04:09:00,1836E-3,5C000000,-0724,0839,12238,023.3,045.4,0.496,743.8,01.18,0.508
2014-06-18 04:10:00,1897E-3,5C000000,-0724,0840,12156,023.3,045.4,0.495,743.8,01.18,0.508
2014-06-18 04:11:00,1800E-3,5C000000,-0724,0840,11942,023.3,045.4,0.496,743.8,01.18,0.508
2014-06-18 04:12:00,1890E-3,5C000000,-0724,0840,12133,023.3,045.4,0.496,743.8,01.18,0.508
2014-06-18 04:13:00,1868E-3,5C000000,-0724,0839,12047,023.3,045.4,0.496,743.8,01.18,0.508
2014-06-18 04:14:00,1941E-3,5C000000,-0724,0839,12118,023.3,045.4,0.496,743.8,01.18,0.508
2014-06-18 04:15:00,1788E-3,5C000000,-0724,0839,12029,023.3,045.4,0.495,743.7,01.18,0.508
2014-06-18 04:16:00,1768E-3,5C000000,-0724,0840,12080,023.3,045.4,0.496,743.7,01.18,0.508
2014-06-18 04:17:00,1909E-3,5C000000,-0724,0840,12153,023.3,045.4,0.496,743.7,01.18,0.508
2014-06-18 04:18:00,1808E-3,5C000000,-0724,0839,12076,023.3,045.4,0.496,743.7,01.18,0.508
2014-06-18 04:19:00,1775E-3,5C000000,-0724,0839,12088,023.3,045.4,0.496,743.7,01.18,0.508
2014-06-18 04:20:00,1874E-3,5C000000,-0724,0839,12118,023.2,045.4,0.495,743.6,01.18,0.508